Regional Weather Roundup
Issued by NWS Little Rock, AR

Home | Current Version | Previous Version | Graphics & Text | Print | Product List | Glossary On
Versions: 1 2 3 4 5 6 7 8 9 10 11 12 13 14 15 16 17 18 19 20 21 22 23 24 25 26 27 28 29 30 31 32 33 34 35 36 37 38 39 40 41 42 43 44 45 46 47 48 49 50
000
ASUS44 KLZK 301005
RWRLZK

WEATHER ROUNDUP FOR ARKANSAS
NATIONAL WEATHER SERVICE LITTLE ROCK AR
500 AM CDT SUN APR 30 2017

NOTE: "FAIR" INDICATES FEW OR NO CLOUDS BELOW 12,000 FEET WITH NO
SIGNIFICANT WEATHER AND/OR OBSTRUCTIONS TO VISIBILITY.

ARZ001-003-010-029-301100-
NORTHWEST ARKANSAS

CITY           SKY/WX    TMP DP  RH WIND       PRES   REMARKS
FAYETTEVILLE   LGT RAIN  58  58 100 SW10      29.60R
FORT SMITH     CLOUDY    58  54  86 W12       29.65R
HARRISON       CLOUDY    62  62 100 SE8       29.62F
BENTONVILLE    CLOUDY    57  55  94 SW10G21   29.36F THUNDER
ROGERS         TSTM      61  61 100 SW12G24   29.60R FOG
SILOAM SPGS    CLOUDY    55  52  88 S7        29.59F
HIGHFILL       TSTM      57  56  96 SW14      29.60R
$$

ARZ004-005-016-301100-
NORTH CENTRAL ARKANSAS

CITY           SKY/WX    TMP DP  RH WIND       PRES   REMARKS
BATESVILLE     CLOUDY    64  64 100 E16       29.67S
FLIPPIN        CLOUDY   N/A N/A N/A E6        29.60S
MTN HOME       CLOUDY    64  62  93 SE9       29.63F
$$

ARZ040-041-301100-
WEST CENTRAL ARKANSAS

CITY           SKY/WX    TMP DP  RH WIND       PRES   REMARKS
MENA           NOT AVBL
$$

ARZ009-017-025-026-028-301100-
NORTHEAST ARKANSAS

CITY           SKY/WX    TMP DP  RH WIND       PRES   REMARKS
JONESBORO      TSTM      64  63  96 E13       29.73F FOG
NEWPORT        LGT RAIN  64  63  96 E22       29.66F
WALNUT RIDGE   CLOUDY    64  63  94 E14G25    29.71F
BLYTHEVILLE    LGT RAIN  64  64 100 E10       29.78F
$$

ARZ022-023-033-042-044-301100-
CENTRAL ARKANSAS

CITY           SKY/WX    TMP DP  RH WIND       PRES   REMARKS
LITTLE ROCK    TSTM      70  70 100 SE15G23   29.65R FOG
N LITTLE ROCK    N/A     67  66  97 E8G21     29.62R
JACKSONVILLE   TSTM      66  66 100 E12       29.61S FOG
CONWAY           N/A     66  66 100 SE5       29.61R
SEARCY         TSTM      64  64 100 E13       29.68R FOG
CLINTON        CLOUDY    64  64 100 SE5       29.61F
$$

ARZ036-301100-
EAST ARKANSAS

CITY           SKY/WX    TMP DP  RH WIND       PRES   REMARKS
WEST MEMPHIS   TSTM      68  66  93 E7        29.72F
$$

ARZ050-053-066-070-073-301100-
SOUTHWEST ARKANSAS

CITY           SKY/WX    TMP DP  RH WIND       PRES   REMARKS
ARKADELPHIA    CLOUDY    63  60  90 SW14      29.69R THUNDER
CAMDEN         HVY RAIN  63  59  88 SW8G16    29.73R
TEXARKANA      CLOUDY    56  53  90 SW7       29.75R
EL DORADO      CLOUDY    62  61  96 W8        29.75R
DE QUEEN       CLOUDY    55  54  96 W12       29.68R
$$

ARZ056-057-069-301100-
SOUTHEAST ARKANSAS

CITY           SKY/WX    TMP DP  RH WIND       PRES   REMARKS
PINE BLUFF     RAIN      73  69  87 S30G41    29.68R FOG
STUTTGART      CLOUDY    73  63  68 S18       29.68R THUNDER
MONTICELLO     TSTM      72  68  87 S13G26    29.70R FOG

$$





USA.gov is the U.S. government's official web portal to all federal, state and local government web resources and services.